Location: F�ldbach
(47.6640°N, 8.9751°E)
Time: 11:47:47
(UTC+00:00)

Daily predictions for brighter satellites

Satellite Brightness Start Highest point End
(mag) Time Altitude Azimuth Time Altitude Azimuth Time Altitude Azimuth
Cosmos 1464 Rocket 4.1 16:03:26 10° S 16:09:46 75° E 16:16:09 10° NNE
Cosmos 1340 Rocket 3.0 16:06:09 10° N 16:10:08 49° ENE 16:14:06 10° SSE
SJ 16-02 2.7 16:06:23 10° NNW 16:10:34 45° WSW 16:14:44 10° S
CZ-4C R/B 3.4 16:07:03 10° N 16:10:58 75° WNW 16:14:38 10° SSW
ISS -3.2 16:10:17 10° WNW 16:13:34 44° N 16:16:51 10° E
Cosmos 1606 2.8 16:12:43 10° SSW 16:16:28 80° W 16:20:17 10° N
CZ-2D R/B 4.4 16:14:04 10° ESE 16:17:08 23° ENE 16:20:11 10° NNE
Lacrosse 5 rocket 2.7 16:14:43 10° NW 16:17:44 22° N 16:20:54 10° ENE
Nadezhda 4 Rocket 4.0 16:11:34 10° N 16:17:54 72° E 16:24:14 10° SSE
CZ-4B R/B 4.1 16:15:53 10° ESE 16:20:15 26° ENE 16:24:36 10° N
Cosmos 2360 4.4 16:15:01 10° NNW 16:20:36 50° NE 16:26:09 10° SE
ADEOS 4.4 16:15:33 10° S 16:20:41 57° W 16:25:51 10° NNW
Meteor 1-20 Rocket 4.4 16:16:25 10° N 16:22:10 56° ENE 16:27:54 10° SSE
CZ-2C R/B 3.9 16:19:35 10° NE 16:23:06 18° E 16:26:36 10° SE
Cosmos 1500 Rocket 3.6 16:18:57 10° N 16:23:21 58° ENE 16:27:41 10° SSE
Cosmos 540 Rocket 4.3 16:19:13 10° SSE 16:23:37 30° E 16:28:02 10° NE
CZ-4C R/B 3.4 16:17:17 10° NW 16:23:38 39° NE 16:31:07 10° ESE
CZ-4B R/B 2.9 16:23:07 10° SSE 16:27:12 84° WSW 16:31:06 10° NNW
Cosmos 1500 4.2 16:25:44 10° NNE 16:28:50 24° ENE 16:31:55 10° SE
SMAP 3.1 16:24:20 10° SSE 16:28:54 62° ENE 16:33:31 10° N
USA 305 3.8 16:25:32 10° WNW 16:29:29 36° N 16:32:56 13° ENE
CZ-2C R/B 3.1 16:26:08 10° S 16:31:03 75° WSW 16:35:50 10° NNW
Cosmos 1092 Rocket 4.1 16:26:23 10° N 16:32:39 56° ENE 16:38:51 10° SSE
Cosmos 468 Rocket 4.1 16:28:09 10° S 16:33:11 59° ESE 16:38:19 10° NNE
Cosmos 1898 Rocket 3.5 16:29:06 10° NNW 16:34:22 69° ENE 16:39:33 10° SSE
Cosmos 44 4.4 16:30:17 10° NW 16:34:51 47° WSW 16:39:10 10° SSE
Cosmos 1805 Rocket 3.8 16:30:43 10° N 16:34:54 45° ENE 16:39:03 10° SSE
Sich 1 3.5 16:31:33 10° N 16:35:33 36° ENE 16:39:31 10° SE
Cosmos 1933 3.7 16:32:41 10° SSE 16:36:32 44° E 16:40:23 10° NNE
Cosmos 1842 Rocket 3.9 16:34:46 10° SSW 16:39:13 70° WNW 16:43:42 10° N
Cosmos 2360 Rocket 4.1 16:37:58 10° NNE 16:39:14 11° NNE 16:40:27 10° NE
Cosmos 2221 3.1 16:35:07 10° SSW 16:39:20 59° WNW 16:43:36 10° N
PSLV R/B 3.9 16:38:42 10° SE 16:42:14 47° ENE 16:45:50 10° N
SL-08 R/B 4.1 16:40:34 10° N 16:45:10 52° WNW 16:49:40 10° SW
Cosmos 2084 4.0 16:46:51 10° NW 16:51:07 64° SW 16:55:32 10° SSE
deb Chang Zheng 4 4.1 16:48:07 10° SE 16:52:02 35° ENE 16:55:57 10° N
AQUARIUS 4.1 16:48:01 10° SSE 16:52:30 88° E 16:57:02 10° NNW
Cosmos 1627 Rocket 4.4 16:47:13 10° N 16:53:23 68° ENE 16:59:28 10° SSE
H-2A R/B 2.0 16:49:50 10° SSE 16:54:54 57° ENE 16:59:51 10° N
Cosmos 2034 Rocket 4.2 16:49:54 10° SSW 16:56:03 73° W 17:02:13 10° N
NOSS 2-2 (C) 4.3 16:52:38 10° NW 16:57:36 63° NE 17:04:34 10° SE
ERBS 4.0 16:55:41 10° WNW 16:58:14 21° NNW 16:59:46 16° NNE
Cosmos 1666 3.4 16:55:17 10° NNE 16:58:33 28° ENE 17:01:48 10° SE
Cosmos 2322 Rocket 3.6 16:55:25 10° N 16:59:15 18° NE 17:00:05 18° NE
USA 306 3.8 16:57:48 10° WNW 17:01:43 34° N 17:03:44 22° NE
Cosmos 2279 Rocket 4.3 16:56:28 10° SSE 17:02:12 41° E 17:07:57 10° NNE
Cosmos 1697 Rocket 2.8 16:57:18 10° NNW 17:02:56 79° WSW 17:08:32 10° SSE
USA 267 3.4 16:58:13 16° NE 17:03:37 73° NNW 17:10:07 10° WSW
Cosmos 2369 3.6 17:00:33 10° NNW 17:06:19 77° ENE 17:12:02 10° SSE
Cosmos 1980 Rocket 2.2 17:01:10 10° NNW 17:06:49 63° ENE 17:12:24 10° SE
COSMO-SKYMED 1 3.1 17:05:08 19° NE 17:07:48 38° E 17:11:50 10° SSE
MOS 1-B Rocket 4.1 17:02:16 10° NNE 17:08:02 58° ESE 17:14:34 10° S
Cosmos 1763 Rocket 3.7 17:03:00 10° SSW 17:08:03 70° WNW 17:13:11 10° NNE
Cosmos 1939 Rocket 4.0 17:04:45 10° S 17:08:43 47° W 17:12:41 10° NNW
SL-24 R/B - RUBIN 2 3.4 17:07:11 10° NW 17:11:46 69° NE 17:15:47 12° SE
Meteor 2-21 4.3 17:06:22 10° N 17:12:31 82° E 17:18:34 10° S
Cosmos 841 Rocket 3.5 17:08:25 10° S 17:13:30 62° ESE 17:17:15 18° NNE
Cosmos 1812 3.0 17:11:33 10° SSE 17:15:13 44° E 17:16:32 31° NE
Cosmos 1937 Rocket 3.7 17:10:34 10° NNW 17:15:55 76° WSW 17:21:13 10° SSE
SL-16 R/B 3.1 17:11:53 10° N 17:16:39 27° NE 17:17:26 26° ENE
Cosmos 1125 Rocket 4.4 17:12:43 10° N 17:17:05 26° NE 17:17:07 26° NE
Cosmos 1634 Rocket 4.0 17:11:21 10° S 17:17:39 82° E 17:24:01 10° N
Cosmos 1633 Rocket 3.2 17:14:37 10° N 17:18:52 47° ENE 17:23:05 10° SSE
USA 307 3.8 17:16:09 10° WNW 17:20:06 34° N 17:21:20 29° NE
YAOGAN 1 4.1 17:22:20 21° NNE 17:22:20 21° NNE 17:24:09 10° N
USA 229 4.5 17:13:44 10° NW 17:20:58 61° WSW 17:28:36 10° SSE
Cosmos 2082 Rocket 2.3 17:15:30 10° S 17:21:03 58° ESE 17:24:27 24° NE
Cosmos 2026 Rocket 4.1 17:18:12 10° NNW 17:24:21 76° W 17:30:24 10° S
Cosmos 2333 Rocket 4.2 17:22:24 10° N 17:24:11 12° NNE 17:24:11 12° NNE
Okean O Rocket 1.5 17:25:20 10° SSE 17:29:44 69° ENE 17:34:12 10° N
ATLAS 2AS CENTAUR R/B 4.3 17:23:58 10° NW 17:29:52 23° N 17:33:27 17° NNE
Cosmos 372 Rocket 4.0 17:25:00 10° NNW 17:30:15 87° WSW 17:35:30 10° SSE
Cosmos 2278 3.6 17:25:04 10° NNW 17:30:48 69° ENE 17:36:28 10° SE
SKYMED 3 4.5 17:29:31 25° NNE 17:32:00 67° ESE 17:36:18 10° S
ATLAS CENTAUR R/B 4.0 17:32:33 10° NW 17:34:19 12° NNW 17:36:09 10° N
Cosmos 1151 Rocket 2.9 17:31:48 10° S 17:36:06 71° E 17:38:07 31° NNE
Cosmos 1782 3.3 17:32:14 10° SSW 17:36:11 60° WNW 17:39:44 13° N
Cosmos 1655 Rocket 4.2 17:30:40 10° N 17:36:52 49° ENE 17:43:00 10° SSE
USA 234 4.2 17:31:42 10° SSE 17:37:58 48° SW 17:44:16 10° WNW
COSMOS 2406 3.5 17:33:03 10° SW 17:38:48 69° WNW 17:43:05 18° NNE
COSMOS 2455 2.8 17:34:35 10° SSW 17:40:37 86° ESE 17:43:55 29° NE
USA 308 3.7 17:38:43 10° WNW 17:42:40 35° N 17:42:51 35° NNE
ARGOS 3.1 17:38:01 10° SSE 17:43:27 89° E 17:48:54 10° NNW
Cosmos 1666 Rocket 3.6 17:39:19 10° NNW 17:43:47 80° W 17:48:11 10° S
Cosmos 1833 Rocket 3.5 17:40:00 10° SW 17:45:26 49° NW 17:49:48 16° NNE
Cosmos 2180 Rocket 4.4 17:42:12 10° S 17:48:29 70° E 17:54:46 10° NNE
Meteor 2-6 Rocket 4.1 17:44:32 10° S 17:50:15 68° E 17:53:25 27° NNE
Cosmos 1328 Rocket 3.4 17:46:01 10° S 17:50:26 72° E 17:50:52 65° NE
ISS -3.3 17:47:10 10° WNW 17:50:10 61° WSW 17:50:10 61° WSW
Cosmos 2219 Rocket 4.3 17:51:18 10° N 17:52:22 12° NNE 17:52:22 12° NNE
CZ-4 R/B 4.0 17:59:49 10° N 17:59:49 10° N 17:59:53 10° N
SKYMED 2 3.8 17:53:45 28° N 17:55:58 70° WNW 18:00:16 10° SSW
Lacrosse 5 rocket 2.1 17:53:42 10° NW 17:56:30 39° NNW 17:56:30 39° NNW
NOAA 15 4.4 17:54:50 10° SSE 18:00:06 72° ENE 18:05:23 10° N
Landsat 5 3.3 18:00:26 84° SW 18:00:26 84° SW 18:04:21 10° SSW
CZ-4B R/B 3.9 17:55:12 10° S 18:00:30 54° W 18:05:46 10° NNW
Cosmos 2298 Rocket 4.0 17:55:23 10° NNW 18:00:27 60° NE 18:00:27 60° NE
Cosmos 1570 Rocket 3.8 17:55:40 10° SSW 18:00:54 83° ESE 18:02:05 55° NNE
Meteor 2-8 Rocket 4.3 17:55:30 10° S 18:01:39 83° E 18:07:51 10° N
ATLAS CENTAUR R/B 2.7 17:54:42 10° WSW 18:02:34 53° NW 18:03:24 46° N
SL-08 RB Rocket 3.7 17:58:39 10° SSE 18:03:18 82° WSW 18:07:57 10° NNW
GEOS 3 Rocket 3.5 18:02:08 54° SE 18:03:21 81° NE 18:08:34 10° NW
CZ-2C R/B 2.8 17:59:22 14° N 18:03:55 67° WNW 18:09:02 10° SSW
Meteor 1-11 Rocket 3.7 18:02:42 10° N 18:07:51 62° NE 18:07:51 62° NE
Meteor 1-10 Rocket 4.1 18:02:34 10° S 18:08:19 70° E 18:09:02 63° NE
Cosmos 1818 3.4 18:03:08 10° NW 18:08:40 77° NE 18:09:02 73° E
Cosmos 1814 Rocket 4.0 18:03:26 10° SSW 18:08:40 76° WNW 18:10:08 47° N
USA 305 4.1 18:05:59 10° WNW 18:08:56 34° NNW 18:08:56 34° NNW
Cosmos 44 Rocket 3.4 18:07:28 10° NW 18:11:47 65° NNW 18:11:47 65° NNW
CZ-4C R/B 3.1 18:05:37 10° NW 18:12:50 76° SW 18:20:10 15° SSE
Cosmos 2360 Rocket 3.7 18:19:45 10° NNW 18:22:13 23° N 18:22:13 23° N
Cosmos 2208 Rocket 4.3 18:28:20 10° SSW 18:33:42 68° WNW 18:33:46 68° WNW
H-2A R/B 4.5 18:30:48 10° SW 18:34:39 21° W 18:38:29 10° NW
Cosmos 2322 Rocket 3.2 18:38:35 10° NNW 18:41:55 36° NNW 18:41:55 36° NNW
USA 267 3.9 18:45:34 41° N 18:46:08 42° N 18:52:11 10° WNW
Cosmos 1980 Rocket 4.4 18:46:00 10° NW 18:50:20 23° W 18:54:39 10° SSW
SL-16 R/B 3.2 18:55:36 10° NNW 18:59:21 41° NW 18:59:21 41° NW
Cosmos 2082 Rocket 3.8 19:00:37 10° WSW 19:05:30 29° NW 19:06:20 28° NNW
Cosmos 2333 Rocket 4.5 19:05:11 10° NNW 19:06:11 15° NNW 19:06:11 15° NNW
ATLAS 2AS CENTAUR R/B 4.3 19:16:50 10° NW 19:20:53 25° N 19:20:53 25° N
